Orbital Elements at Epoch 2459200.5 (2020-Dec-17.0) TDB
Reference: JPL 40 (heliocentric ecliptic J2000)
Element | Value | Uncertainty (1-sigma) | Units |
e | .1127120657151746 | 4.1576e-08 | |
a | 3.001670953668146 | 1.6292e-08 | au |
q | 2.663346419882971 | 1.1907e-07 | au |
i | 7.865375289398223 | 3.635e-06 | deg |
node | 232.0707226773066 | 2.7607e-05 | deg |
peri | 148.7139843536528 | 3.2213e-05 | deg |
M | 155.79236515362 | 1.703e-05 | deg |
tp | 2458378.471791870731 (2018-Sep-16.97179187) | 8.8299e-05 | TDB |
period | 1899.516414907322 5.20 | 1.5465e-05 4.234e-08 | d yr |
n | .1895219210398687 | 1.543e-09 | deg/d |
Q | 3.339995487453321 | 1.8128e-08 | au |
|
| | Orbit Determination Parameters
Additional Information
|